Orbital Elements at Epoch 2459200.5 (2020-Dec-17.0) TDB
Reference: JPL 20 (heliocentric ecliptic J2000)
Element | Value | Uncertainty (1-sigma) | Units |
e | .1572725219796376 | 3.6252e-08 | |
a | 2.388772786699907 | 1.3099e-08 | au |
q | 2.013084466099286 | 8.8552e-08 | au |
i | 3.842226909685177 | 4.1783e-06 | deg |
node | 237.6857132741232 | 6.0841e-05 | deg |
peri | 71.93842547332676 | 6.2288e-05 | deg |
M | 231.1501087274625 | 1.3175e-05 | deg |
tp | 2459683.161042730766 (2022-Apr-13.66104273) | 5.0198e-05 | TDB |
period | 1348.530244511816 3.69 | 1.1092e-05 3.037e-08 | d yr |
n | .266957305158791 | 2.1958e-09 | deg/d |
Q | 2.764461107300529 | 1.5159e-08 | au |
|
| | Orbit Determination Parameters
Additional Information
|